Regional Weather Roundup
Issued by NWS

Home | Current Version | Previous Version | Graphics & Text | Print | Product List | Glossary On
Versions: 1 2 3 4 5 6 7 8 9 10 11 12 13 14 15 16 17 18 19 20 21 22 23 24 25 26 27 28 29 30 31 32 33 34 35 36 37 38 39 40 41 42 43 44 45 46 47 48 49 50
000
ASUS45 KCYS 191510
RWRWY

WYOMING REGIONAL WEATHER ROUNDUP
NATIONAL WEATHER SERVICE CHEYENNE WY
900 AM MDT SUN OCT 19 2014

NOTE:  "FAIR" INDICATES FEW OR NO CLOUDS BELOW 12,000 FEET
WITH NO SIGNIFICANT WEATHER AND/OR OBSTRUCTIONS TO VISIBILITY.

WYZ001-191600-
YELLOWSTONE NATIONAL PARK

CITY           SKY/WX    TMP DP  RH WIND       PRES   REMARKS
LK YELLOWSTONE   N/A     30  27  88 CALM      30.28R
W YELLOWSTONE  NOT AVBL

$$
WYZ002>013-054>058-071-098>099-191600-
NORTHERN WYOMING

CITY           SKY/WX    TMP DP  RH WIND       PRES   REMARKS
JACKSON        SUNNY     30  28  93 CALM      30.26R
CODY           SUNNY    N/A N/A N/A CALM      30.12R
GREYBULL       SUNNY     39  29  67 CALM      30.12R
WORLAND        SUNNY     41  32  70 CALM      30.12R
SHERIDAN       SUNNY     46  37  71 S3        30.10R
BUFFALO        SUNNY     55  32  41 SW6       30.14R
GILLETTE       SUNNY     52  42  69 CALM      30.11R
HULETT         FAIR      52  36  54 S5        30.12
NEWCASTLE      FAIR      50  34  53 SE3       30.10

$$
WYZ014>020-022>026-101>103-191600-
CENTRAL WYOMING

CITY           SKY/WX    TMP DP  RH WIND       PRES   REMARKS
BIG PINEY      SUNNY     36  28  73 CALM      30.25R
PINEDALE       MOSUNNY   32  30  93 W3        30.26R
DUBOIS         FAIR      36  25  64 NW9       30.24R WCI  29
LANDER         SUNNY     49  30  48 SE3       30.16R
RIVERTON       SUNNY     45  32  60 CALM      30.18R
CASPER         SUNNY     47  31  53 W8        30.17R
DOUGLAS        SUNNY     47  33  58 N9        30.17R

$$
WYZ021-027>030-104>119-191600-
SOUTHERN WYOMING

CITY           SKY/WX    TMP DP  RH WIND       PRES   REMARKS
EVANSTON       MOSUNNY   43  27  53 S3        30.22R
KEMMERER       SUNNY     36  30  80 N12       30.24R WCI  27
FORT BRIDGER   FAIR      44  31  59 W3        30.25R
ROCK SPRINGS   MOSUNNY   43  29  57 CALM      30.23R
DIXON          HAZE      46  30  54 E6        30.26R VSB 1/2
RAWLINS        SUNNY     43  28  55 CALM      30.23R
SARATOGA       FAIR      45  30  57 SE6       30.24R
LARAMIE        SUNNY     44  29  55 S9        30.22R
CHEYENNE       SUNNY     55  30  38 W10       30.16R
TORRINGTON     SUNNY     46  37  71 NW8       30.10R
PINE BLUFFS    FAIR      50  34  53 CALM      30.13R

$$


USA.gov is the U.S. government's official web portal to all federal, state and local government web resources and services.